Alamosa, CO

3:27 AM MST on February 13, 2016 (GMT -0700)
San Luis Valley Regional / Bergman Field

Weather History for KALS - June, 2013

Change the Weather History Date:

Tuesday, June 11, 2013

  Actual Average Record
Temperature  
Mean Temperature 65 °F 58 °F  
Max Temperature 88 °F 78 °F 89 °F (1981)
Min Temperature 41 °F 39 °F 29 °F (1963)
Degree Days  
Heating Degree Days 0 7  
Month to date heating degree days 62 88  
Since 1 June heating degree days 62 88  
Since 1 July heating degree days 9003 8514  
Cooling Degree Days 0 0  
Month to date cooling degree days 1 0  
Year to date cooling degree days 1 0  
Since 1 June cooling degree days 1 0  
Growing Degree Days 15 (Base 50)    
Moisture  
Dew Point 21 °F    
Average Humidity 35    
Maximum Humidity 65    
Minimum Humidity 4    
Precipitation  
Precipitation 0.00 in 0.01 in 0.19 in (1957)
Month to date precipitation T 0.16  
Year to date precipitation 1.06 2.38  
Snow  
Snow 0.00 in 0.00 in 0.00 in (2002)
Month to date snowfall 0.0 0.0  
Since 1 June snowfall 0.0 0.0  
Since 1 July snowfall 21.1 27.6  
Snow Depth 0.00 in    
Sea Level Pressure  
Sea Level Pressure 29.90 in    
Wind  
Wind Speed 13 mph (SW)    
Max Wind Speed 31 mph    
Max Gust Speed 45 mph    
Visibility 10 miles    
Events      
T = Trace of Precipitation, MM = Missing Value Source: NWS Daily Summary

Daily Weather History Graph

Daily Weather History Graph

Search for Another Location

Airport or City:

Trip Planner

Search our weather history database for the weather conditions in past years. The results will help you decide how hot, cold, wet, or windy it might be!

Date:

Astronomy

Jun. 11, 2013 Rise Set
Actual Time 5:42 AM MDT 8:24 PM MDT
Civil Twilight 5:11 AM MDT 8:55 PM MDT
Nautical Twilight 4:32 AM MDT 9:34 PM MDT
Astronomical Twilight 3:48 AM MDT 10:17 PM MDT
Moon 8:25 AM MDT (6/11) 10:32 PM MDT (6/11)
Length of Visible Light 15h 44m
Length of Day
14h 42m
Waxing Crescent, 8% of the Moon is Illuminated
Jun 11
Waxing Crescent
Jun 16
First Quarter
Jun 23
Full
Jun 29
Last Quarter
Jul 8
New

Hourly Weather History & Observations

Time (MDT) Temp. Windchill Dew Point Humidity Pressure Visibility Wind Dir Wind Speed Gust Speed Precip Events Conditions
12:52 AM 48.0 °F - 30.9 °F 52% 29.87 in 10.0 mi SSE 3.5 mph - N/A   Clear
1:52 AM 50.0 °F - 30.0 °F 46% 29.88 in 10.0 mi WSW 4.6 mph - N/A   Clear
2:52 AM 51.1 °F - 28.0 °F 41% 29.88 in 10.0 mi Calm Calm - N/A   Clear
3:52 AM 44.1 °F 41.5 °F 27.0 °F 51% 29.91 in 10.0 mi SSE 4.6 mph - N/A   Clear
4:52 AM 45.0 °F 42.6 °F 33.1 °F 63% 29.93 in 10.0 mi ESE 4.6 mph - N/A   Clear
5:52 AM 42.1 °F - 30.0 °F 62% 29.96 in 10.0 mi Calm Calm - N/A   Clear
6:52 AM 53.1 °F - 28.9 °F 40% 29.95 in 10.0 mi South 5.8 mph - N/A   Clear
7:52 AM 68.0 °F - 27.0 °F 21% 29.91 in 10.0 mi South 15.0 mph - N/A   Clear
8:52 AM 73.0 °F - 24.1 °F 16% 29.91 in 10.0 mi SSW 13.8 mph - N/A   Clear
9:52 AM 77.0 °F - 23.0 °F 13% 29.88 in 10.0 mi South 16.1 mph - N/A   Clear
10:52 AM 82.0 °F - 21.9 °F 11% 29.89 in 10.0 mi SW 21.9 mph 33.4 mph N/A   Clear
11:52 AM 84.9 °F - 17.1 °F 8% 29.89 in 10.0 mi West 26.5 mph 38.0 mph N/A   Clear
12:52 PM 84.9 °F - 12.9 °F 7% 29.92 in 10.0 mi SW 18.4 mph 34.5 mph N/A   Clear
1:52 PM 87.1 °F - 12.0 °F 6% 29.87 in 10.0 mi WSW 24.2 mph 33.4 mph N/A   Clear
2:52 PM 87.1 °F - 8.1 °F 5% 29.85 in 10.0 mi SW 24.2 mph 32.2 mph N/A   Clear
3:52 PM 86.0 °F - 5.0 °F 5% 29.88 in 10.0 mi WSW 27.6 mph 39.1 mph N/A   Clear
4:52 PM 86.0 °F - 7.0 °F 5% 29.87 in 10.0 mi WSW 21.9 mph 28.8 mph N/A   Clear
5:52 PM 84.0 °F - 16.0 °F 8% 29.88 in 10.0 mi WSW 19.6 mph - N/A   Clear
6:52 PM 81.0 °F - 18.0 °F 10% 29.86 in 10.0 mi WSW 16.1 mph - N/A   Clear
7:52 PM 75.9 °F - 21.0 °F 13% 29.84 in 10.0 mi WSW 11.5 mph - N/A   Clear
8:52 PM 64.9 °F - 23.0 °F 20% 29.88 in 10.0 mi WSW 8.1 mph - N/A   Clear
9:52 PM 57.9 °F - 21.9 °F 25% 29.93 in 10.0 mi WSW 8.1 mph - N/A   Clear
10:52 PM 57.9 °F - 21.0 °F 24% 29.92 in 10.0 mi West 9.2 mph - N/A   Clear
11:52 PM 53.1 °F - 24.1 °F 32% 29.96 in 10.0 mi East 5.8 mph - N/A   Clear